Location: Unspecified
(0.0000°N, 0.0000°E)
Time: 11:31:53
(UTC+00:00)

Vanguard 1 - Pass Details

Date: 24 November 2019
Orbit: 652 x 3831 km, 34.3° (Epoch: 07 December)

Event Time Altitude Azimuth Distance (km) Brightness Sun altitude
Rises 01:46:58 0° 220° (SW) 6,863 14.4 -54.1°
Reaches altitude 10° 01:52:08 10° 210° (SSW) 6,227 14.1 -53.1°
Maximum altitude 02:10:43 34° 151° (SSE) 5,181 13.8 -49.2°
Drops below altitude 10° 02:29:48 10° 94° (E) 6,497 14.7 -45.2°
Sets 02:35:11 0° 85° (E) 7,194 15.0 -44.0°
